Time,TemperatureF,DewpointF,PressureIn,WindDirection,WindDirectionDegrees,WindSpeedMPH,WindSpeedGustMPH,Humidity,HourlyPrecipIn,Conditions,Clouds,dailyrainin,SoftwareType,DateUTC
2013-05-03 00:03:00,60.0,37.0,30.27,East,101,2.0,7.0,43,0.00,,,0.00,,2013-05-03 04:03:00,
2013-05-03 00:12:00,60.0,37.0,30.27,East,101,2.0,7.0,43,0.00,,,0.00,,2013-05-03 04:12:00,
2013-05-03 00:23:00,59.0,38.0,30.27,ENE,77,0.0,1.0,45,0.00,,,0.00,,2013-05-03 04:23:00,
2013-05-03 00:32:00,58.0,38.0,30.27,ENE,77,0.0,1.0,48,0.00,,,0.00,,2013-05-03 04:32:00,
2013-05-03 00:43:00,58.0,38.0,30.27,ENE,77,0.0,1.0,48,0.00,,,0.00,,2013-05-03 04:43:00,
2013-05-03 00:53:00,58.0,39.0,30.27,East,79,0.0,1.0,49,0.00,,,0.00,,2013-05-03 04:53:00,
2013-05-03 01:02:00,58.0,39.0,30.27,SSE,151,0.0,2.0,50,0.00,,,0.00,,2013-05-03 05:02:00,
2013-05-03 01:12:00,58.0,39.0,30.27,SSE,151,0.0,2.0,50,0.00,,,0.00,,2013-05-03 05:12:00,
2013-05-03 01:21:00,57.0,39.0,30.27,SE,144,0.0,1.0,51,0.00,,,0.00,,2013-05-03 05:21:00,
2013-05-03 01:32:00,57.0,39.0,30.27,SE,138,0.0,1.0,51,0.00,,,0.00,,2013-05-03 05:32:00,
2013-05-03 01:42:00,57.0,39.0,30.27,SE,138,0.0,1.0,51,0.00,,,0.00,,2013-05-03 05:42:00,
2013-05-03 01:52:00,57.0,39.0,30.27,SE,145,0.0,1.0,50,0.00,,,0.00,,2013-05-03 05:52:00,
2013-05-03 02:02:00,56.0,38.0,30.26,SE,145,0.0,1.0,51,0.00,,,0.00,,2013-05-03 06:02:00,
2013-05-03 02:12:00,56.0,38.0,30.26,SE,145,0.0,1.0,51,0.00,,,0.00,,2013-05-03 06:12:00,
2013-05-03 02:21:00,56.0,39.0,30.26,SE,145,0.0,0.0,52,0.00,,,0.00,,2013-05-03 06:21:00,
2013-05-03 02:32:00,54.0,39.0,30.26,SE,145,0.0,0.0,56,0.00,,,0.00,,2013-05-03 06:32:00,
2013-05-03 02:42:00,54.0,39.0,30.26,SE,145,0.0,0.0,56,0.00,,,0.00,,2013-05-03 06:42:00,
2013-05-03 02:52:00,54.0,39.0,30.26,SE,145,0.0,0.0,57,0.00,,,0.00,,2013-05-03 06:52:00,
2013-05-03 03:01:00,52.0,39.0,30.26,WSW,240,0.0,0.0,61,0.00,,,0.00,,2013-05-03 07:01:00,
2013-05-03 03:11:00,52.0,39.0,30.26,WSW,240,0.0,0.0,61,0.00,,,0.00,,2013-05-03 07:11:00,
2013-05-03 03:21:00,51.0,39.0,30.26,WSW,240,0.0,1.0,64,0.00,,,0.00,,2013-05-03 07:21:00,
2013-05-03 03:32:00,50.0,38.0,30.26,WSW,240,0.0,0.0,64,0.00,,,0.00,,2013-05-03 07:32:00,
2013-05-03 03:42:00,50.0,38.0,30.26,WSW,240,0.0,0.0,64,0.00,,,0.00,,2013-05-03 07:42:00,
2013-05-03 03:52:00,49.0,39.0,30.27,WSW,240,0.0,1.0,67,0.00,,,0.00,,2013-05-03 07:52:00,
2013-05-03 04:02:00,49.0,39.0,30.26,WSW,240,0.0,0.0,67,0.00,,,0.00,,2013-05-03 08:02:00,
2013-05-03 04:12:00,49.0,39.0,30.26,WSW,240,0.0,0.0,67,0.00,,,0.00,,2013-05-03 08:12:00,
2013-05-03 04:21:00,49.0,39.0,30.26,WSW,240,0.0,1.0,67,0.00,,,0.00,,2013-05-03 08:21:00,
2013-05-03 04:32:00,49.0,39.0,30.26,WSW,240,0.0,2.0,68,0.00,,,0.00,,2013-05-03 08:32:00,
2013-05-03 04:42:00,49.0,39.0,30.26,WSW,240,0.0,2.0,68,0.00,,,0.00,,2013-05-03 08:42:00,
2013-05-03 04:53:00,49.0,39.0,30.26,WSW,240,0.0,1.0,67,0.00,,,0.00,,2013-05-03 08:53:00,
2013-05-03 05:01:00,49.0,39.0,30.26,WSW,240,0.0,0.0,67,0.00,,,0.00,,2013-05-03 09:01:00,
2013-05-03 05:12:00,49.0,39.0,30.26,WSW,240,0.0,0.0,67,0.00,,,0.00,,2013-05-03 09:12:00,
2013-05-03 05:21:00,48.0,39.0,30.26,WSW,240,0.0,1.0,72,0.00,,,0.00,,2013-05-03 09:21:00,
2013-05-03 05:32:00,47.0,39.0,30.27,WSW,240,0.0,0.0,73,0.00,,,0.00,,2013-05-03 09:32:00,
2013-05-03 05:42:00,47.0,39.0,30.27,WSW,240,0.0,0.0,73,0.00,,,0.00,,2013-05-03 09:42:00,
2013-05-03 05:53:00,46.0,39.0,30.27,WSW,240,0.0,1.0,76,0.00,,,0.00,,2013-05-03 09:53:00,
2013-05-03 06:03:00,46.0,39.0,30.27,WSW,240,0.0,1.0,77,0.00,,,0.00,,2013-05-03 10:03:00,
2013-05-03 06:12:00,46.0,39.0,30.27,WSW,240,0.0,1.0,77,0.00,,,0.00,,2013-05-03 10:12:00,
2013-05-03 06:22:00,46.0,39.0,30.27,WSW,240,0.0,1.0,77,0.00,,,0.00,,2013-05-03 10:22:00,
2013-05-03 06:32:00,46.0,38.0,30.27,WSW,240,0.0,1.0,74,0.00,,,0.00,,2013-05-03 10:32:00,
2013-05-03 06:42:00,46.0,38.0,30.27,WSW,240,0.0,1.0,74,0.00,,,0.00,,2013-05-03 10:42:00,
2013-05-03 06:52:00,46.0,38.0,30.28,WSW,240,0.0,1.0,74,0.00,,,0.00,,2013-05-03 10:52:00,
2013-05-03 07:02:00,46.0,39.0,30.29,WSW,240,0.0,1.0,75,0.00,,,0.00,,2013-05-03 11:02:00,
2013-05-03 07:11:00,46.0,39.0,30.29,WSW,240,0.0,1.0,75,0.00,,,0.00,,2013-05-03 11:11:00,
2013-05-03 07:22:00,46.0,40.0,30.29,WSW,240,0.0,0.0,79,0.00,,,0.00,,2013-05-03 11:22:00,
2013-05-03 07:32:00,46.0,40.0,30.30,WSW,240,0.0,1.0,78,0.00,,,0.00,,2013-05-03 11:32:00,
2013-05-03 07:42:00,46.0,40.0,30.30,WSW,240,0.0,1.0,78,0.00,,,0.00,,2013-05-03 11:42:00,
2013-05-03 07:52:00,48.0,41.0,30.30,WSW,240,0.0,0.0,77,0.00,,,0.00,,2013-05-03 11:52:00,
2013-05-03 08:02:00,54.0,38.0,30.30,ESE,107,1.0,5.0,55,0.00,,,0.00,,2013-05-03 12:02:00,
2013-05-03 08:11:00,54.0,38.0,30.30,ESE,107,1.0,5.0,55,0.00,,,0.00,,2013-05-03 12:11:00,
2013-05-03 08:21:00,55.0,38.0,30.30,East,100,1.0,4.0,53,0.00,,,0.00,,2013-05-03 12:21:00,
2013-05-03 08:32:00,56.0,39.0,30.30,East,95,0.0,2.0,52,0.00,,,0.00,,2013-05-03 12:32:00,
2013-05-03 08:42:00,56.0,39.0,30.30,East,95,0.0,2.0,52,0.00,,,0.00,,2013-05-03 12:42:00,
2013-05-03 08:52:00,57.0,39.0,30.30,ESE,123,0.0,2.0,51,0.00,,,0.00,,2013-05-03 12:52:00,
2013-05-03 09:01:00,58.0,39.0,30.30,East,94,0.0,5.0,50,0.00,,,0.00,,2013-05-03 13:01:00,
2013-05-03 09:11:00,58.0,39.0,30.30,East,94,0.0,5.0,50,0.00,,,0.00,,2013-05-03 13:11:00,
2013-05-03 09:22:00,60.0,39.0,30.29,East,96,1.0,5.0,45,0.00,,,0.00,,2013-05-03 13:22:00,
2013-05-03 09:32:00,61.0,40.0,30.29,ESE,113,2.0,5.0,46,0.00,,,0.00,,2013-05-03 13:32:00,
2013-05-03 09:42:00,61.0,40.0,30.29,ESE,113,2.0,5.0,46,0.00,,,0.00,,2013-05-03 13:42:00,
2013-05-03 09:52:00,61.0,38.0,30.29,ESE,109,1.0,6.0,43,0.00,,,0.00,,2013-05-03 13:52:00,
2013-05-03 10:02:00,63.0,40.0,30.29,SSE,165,1.0,6.0,42,0.00,,,0.00,,2013-05-03 14:02:00,
2013-05-03 10:11:00,63.0,40.0,30.29,SSE,165,1.0,6.0,42,0.00,,,0.00,,2013-05-03 14:11:00,
2013-05-03 10:22:00,64.0,39.0,30.29,SSE,154,3.0,7.0,39,0.00,,,0.00,,2013-05-03 14:22:00,
2013-05-03 10:32:00,65.0,37.0,30.29,ENE,58,3.0,8.0,36,0.00,,,0.00,,2013-05-03 14:32:00,
2013-05-03 10:42:00,65.0,37.0,30.29,ENE,58,3.0,8.0,36,0.00,,,0.00,,2013-05-03 14:42:00,
2013-05-03 10:52:00,66.0,38.0,30.29,East,86,1.0,7.0,36,0.00,,,0.00,,2013-05-03 14:52:00,
2013-05-03 11:01:00,66.0,34.0,30.29,ESE,107,2.0,7.0,31,0.00,,,0.00,,2013-05-03 15:01:00,
2013-05-03 11:11:00,66.0,34.0,30.29,ESE,107,2.0,7.0,31,0.00,,,0.00,,2013-05-03 15:11:00,
2013-05-03 11:22:00,67.0,36.0,30.29,ESE,109,3.0,8.0,32,0.00,,,0.00,,2013-05-03 15:22:00,
2013-05-03 11:32:00,67.0,38.0,30.29,SE,127,1.0,5.0,34,0.00,,,0.00,,2013-05-03 15:32:00,
2013-05-03 11:43:00,67.0,38.0,30.29,SE,127,1.0,5.0,34,0.00,,,0.00,,2013-05-03 15:43:00,
2013-05-03 11:53:00,69.0,42.0,30.29,East,80,2.0,5.0,37,0.00,,,0.00,,2013-05-03 15:53:00,
2013-05-03 12:03:00,69.0,39.0,30.28,ESE,109,3.0,9.0,34,0.00,,,0.00,,2013-05-03 16:03:00,
2013-05-03 12:13:00,69.0,39.0,30.28,ESE,109,3.0,9.0,34,0.00,,,0.00,,2013-05-03 16:13:00,
2013-05-03 12:23:00,70.0,39.0,30.28,SE,135,2.0,8.0,32,0.00,,,0.00,,2013-05-03 16:23:00,
2013-05-03 12:33:00,70.0,34.0,30.27,East,82,3.0,7.0,27,0.00,,,0.00,,2013-05-03 16:33:00,
2013-05-03 12:42:00,70.0,34.0,30.27,East,82,3.0,7.0,27,0.00,,,0.00,,2013-05-03 16:42:00,
2013-05-03 12:52:00,71.0,35.0,30.26,SE,142,2.0,9.0,27,0.00,,,0.00,,2013-05-03 16:52:00,
2013-05-03 13:02:00,71.0,40.0,30.26,ESE,107,3.0,6.0,33,0.00,,,0.00,,2013-05-03 17:02:00,
2013-05-03 13:12:00,71.0,39.0,30.25,NE,46,2.0,6.0,31,0.00,,,0.00,,2013-05-03 17:12:00,
2013-05-03 13:23:00,71.0,39.0,30.25,NE,46,2.0,6.0,31,0.00,,,0.00,,2013-05-03 17:23:00,
2013-05-03 13:32:00,72.0,41.0,30.25,ESE,117,3.0,7.0,32,0.00,,,0.00,,2013-05-03 17:32:00,
2013-05-03 13:42:00,72.0,41.0,30.25,ESE,117,3.0,7.0,32,0.00,,,0.00,,2013-05-03 17:42:00,
2013-05-03 13:52:00,72.0,40.0,30.24,ENE,68,3.0,8.0,31,0.00,,,0.00,,2013-05-03 17:52:00,
2013-05-03 14:01:00,73.0,42.0,30.24,SE,134,2.0,7.0,33,0.00,,,0.00,,2013-05-03 18:01:00,
2013-05-03 14:12:00,73.0,42.0,30.24,SE,134,2.0,7.0,33,0.00,,,0.00,,2013-05-03 18:12:00,
2013-05-03 14:21:00,72.0,42.0,30.24,ESE,108,2.0,9.0,34,0.00,,,0.00,,2013-05-03 18:21:00,
2013-05-03 14:32:00,73.0,44.0,30.23,SE,128,4.0,13.0,36,0.00,,,0.00,,2013-05-03 18:32:00,
2013-05-03 14:42:00,73.0,44.0,30.23,SE,128,4.0,13.0,36,0.00,,,0.00,,2013-05-03 18:42:00,
2013-05-03 14:52:00,72.0,43.0,30.23,ESE,122,4.0,9.0,35,0.00,,,0.00,,2013-05-03 18:52:00,
2013-05-03 15:01:00,73.0,47.0,30.23,SSW,212,3.0,11.0,39,0.00,,,0.00,,2013-05-03 19:01:00,
2013-05-03 15:11:00,73.0,47.0,30.23,SSW,212,3.0,11.0,39,0.00,,,0.00,,2013-05-03 19:11:00,
2013-05-03 15:21:00,73.0,44.0,30.22,ESE,113,3.0,6.0,36,0.00,,,0.00,,2013-05-03 19:21:00,
2013-05-03 15:32:00,73.0,44.0,30.22,SE,130,1.0,12.0,36,0.00,,,0.00,,2013-05-03 19:32:00,
2013-05-03 15:42:00,73.0,44.0,30.22,SE,130,1.0,12.0,36,0.00,,,0.00,,2013-05-03 19:42:00,
2013-05-03 15:52:00,74.0,47.0,30.22,ENE,59,2.0,8.0,39,0.00,,,0.00,,2013-05-03 19:52:00,
2013-05-03 16:02:00,74.0,49.0,30.21,NE,53,3.0,7.0,41,0.00,,,0.00,,2013-05-03 20:02:00,
2013-05-03 16:11:00,74.0,49.0,30.21,NE,53,3.0,7.0,41,0.00,,,0.00,,2013-05-03 20:11:00,
2013-05-03 16:21:00,74.0,46.0,30.21,ENE,66,3.0,6.0,37,0.00,,,0.00,,2013-05-03 20:21:00,
2013-05-03 16:32:00,73.0,46.0,30.20,East,82,3.0,5.0,38,0.00,,,0.00,,2013-05-03 20:32:00,
2013-05-03 16:42:00,73.0,46.0,30.20,East,82,3.0,5.0,38,0.00,,,0.00,,2013-05-03 20:42:00,
2013-05-03 16:52:00,73.0,45.0,30.20,East,86,3.0,8.0,37,0.00,,,0.00,,2013-05-03 20:52:00,
2013-05-03 17:01:00,72.0,43.0,30.20,SE,138,4.0,9.0,35,0.00,,,0.00,,2013-05-03 21:01:00,
2013-05-03 17:11:00,72.0,43.0,30.20,SE,138,4.0,9.0,35,0.00,,,0.00,,2013-05-03 21:11:00,
2013-05-03 17:21:00,72.0,44.0,30.20,South,174,3.0,7.0,36,0.00,,,0.00,,2013-05-03 21:21:00,
2013-05-03 17:33:00,72.0,44.0,30.19,East,83,4.0,11.0,37,0.00,,,0.00,,2013-05-03 21:33:00,
2013-05-03 17:42:00,72.0,44.0,30.19,East,83,4.0,11.0,37,0.00,,,0.00,,2013-05-03 21:42:00,
2013-05-03 17:53:00,72.0,44.0,30.19,SE,142,2.0,5.0,36,0.00,,,0.00,,2013-05-03 21:53:00,
2013-05-03 18:03:00,71.0,44.0,30.19,East,93,2.0,9.0,38,0.00,,,0.00,,2013-05-03 22:03:00,
2013-05-03 18:13:00,71.0,44.0,30.19,East,93,2.0,9.0,38,0.00,,,0.00,,2013-05-03 22:13:00,
2013-05-03 18:22:00,71.0,44.0,30.20,ENE,71,2.0,11.0,38,0.00,,,0.00,,2013-05-03 22:22:00,
2013-05-03 18:32:00,70.0,43.0,30.20,ESE,119,2.0,8.0,38,0.00,,,0.00,,2013-05-03 22:32:00,
2013-05-03 18:42:00,70.0,43.0,30.20,ESE,119,2.0,8.0,38,0.00,,,0.00,,2013-05-03 22:42:00,
2013-05-03 18:52:00,70.0,44.0,30.20,SSW,208,2.0,8.0,39,0.00,,,0.00,,2013-05-03 22:52:00,
2013-05-03 19:02:00,69.0,44.0,30.21,ENE,67,3.0,5.0,40,0.00,,,0.00,,2013-05-03 23:02:00,
2013-05-03 19:11:00,69.0,44.0,30.21,ENE,67,3.0,5.0,40,0.00,,,0.00,,2013-05-03 23:11:00,
2013-05-03 19:22:00,68.0,43.0,30.21,East,94,2.0,7.0,41,0.00,,,0.00,,2013-05-03 23:22:00,
2013-05-03 19:31:00,68.0,45.0,30.21,SE,124,1.0,6.0,43,0.00,,,0.00,,2013-05-03 23:31:00,
2013-05-03 19:41:00,68.0,45.0,30.21,SE,124,1.0,6.0,43,0.00,,,0.00,,2013-05-03 23:41:00,
2013-05-03 19:52:00,67.0,44.0,30.21,ESE,115,1.0,7.0,43,0.00,,,0.00,,2013-05-03 23:52:00,
2013-05-03 20:01:00,66.0,43.0,30.22,ESE,112,1.0,5.0,44,0.00,,,0.00,,2013-05-04 00:01:00,
2013-05-03 20:11:00,66.0,43.0,30.22,ESE,112,1.0,5.0,44,0.00,,,0.00,,2013-05-04 00:11:00,
2013-05-03 20:23:00,65.0,43.0,30.22,SE,145,2.0,5.0,45,0.00,,,0.00,,2013-05-04 00:23:00,
2013-05-03 20:32:00,65.0,44.0,30.23,East,98,1.0,3.0,47,0.00,,,0.00,,2013-05-04 00:32:00,
2013-05-03 20:42:00,65.0,44.0,30.23,East,98,1.0,3.0,47,0.00,,,0.00,,2013-05-04 00:42:00,
2013-05-03 20:52:00,63.0,44.0,30.23,ESE,111,0.0,4.0,49,0.00,,,0.00,,2013-05-04 00:52:00,
2013-05-03 21:01:00,63.0,45.0,30.24,ENE,58,0.0,2.0,51,0.00,,,0.00,,2013-05-04 01:01:00,
2013-05-03 21:11:00,63.0,45.0,30.24,ENE,58,0.0,2.0,51,0.00,,,0.00,,2013-05-04 01:11:00,
2013-05-03 21:21:00,62.0,44.0,30.24,East,92,0.0,2.0,52,0.00,,,0.00,,2013-05-04 01:21:00,
2013-05-03 21:32:00,61.0,44.0,30.24,East,91,0.0,2.0,54,0.00,,,0.00,,2013-05-04 01:32:00,
2013-05-03 21:42:00,61.0,44.0,30.24,East,91,0.0,2.0,54,0.00,,,0.00,,2013-05-04 01:42:00,
2013-05-03 21:52:00,61.0,44.0,30.25,East,94,0.0,3.0,54,0.00,,,0.00,,2013-05-04 01:52:00,
2013-05-03 22:02:00,60.0,44.0,30.25,East,99,0.0,2.0,55,0.00,,,0.00,,2013-05-04 02:02:00,
2013-05-03 22:11:00,60.0,44.0,30.25,East,99,0.0,2.0,55,0.00,,,0.00,,2013-05-04 02:11:00,
2013-05-03 22:21:00,60.0,43.0,30.25,ESE,114,1.0,3.0,54,0.00,,,0.00,,2013-05-04 02:21:00,
2013-05-03 22:32:00,60.0,43.0,30.25,East,82,0.0,4.0,54,0.00,,,0.00,,2013-05-04 02:32:00,
2013-05-03 22:42:00,60.0,43.0,30.25,East,82,0.0,4.0,54,0.00,,,0.00,,2013-05-04 02:42:00,
2013-05-03 22:52:00,60.0,43.0,30.25,ENE,75,0.0,2.0,54,0.00,,,0.00,,2013-05-04 02:52:00,
2013-05-03 23:02:00,59.0,43.0,30.25,ESE,121,1.0,3.0,55,0.00,,,0.00,,2013-05-04 03:02:00,
2013-05-03 23:11:00,59.0,43.0,30.25,ESE,121,1.0,3.0,55,0.00,,,0.00,,2013-05-04 03:11:00,
2013-05-03 23:22:00,58.0,43.0,30.25,ESE,110,0.0,3.0,57,0.00,,,0.00,,2013-05-04 03:22:00,
2013-05-03 23:33:00,58.0,42.0,30.24,East,80,0.0,2.0,56,0.00,,,0.00,,2013-05-04 03:33:00,
2013-05-03 23:43:00,58.0,42.0,30.24,East,80,0.0,2.0,56,0.00,,,0.00,,2013-05-04 03:43:00,
2013-05-03 23:53:00,58.0,43.0,30.25,East,97,0.0,1.0,57,0.00,,,0.00,,2013-05-04 03:53:00,